[[{"header":{"parameterUnit":"m.s-1","parameterCategory":1,"la1":30.2991,"la2":30.254,"lo1":-89.0895,"lo2":-89.0444,"dy":0.0017,"dx":0.0017,"nx":28,"ny":28,"refTime":"2024-07-02T09:00:00:Z","depth":0,"parameterNumber":2,"parameterNumberName":"U-component_of_WINDS"},"data":[0,0,0,0,0,0,0,0,0,0,0,0,0,0,0,0,0,0,0,0,0,0,0,0,0,0,0,0,0,0,0,0,0,0,0,0,0,0,0,0,0,0,0,0,0,0,0,0,0,0,0,0,0,0,0,0,0,0,-0.9712,-0.9712,0,-0.9712,-0.9712,-0.9712,-0.9725,-0.9725,-0.9725,-0.9726,-0.9723,-0.9723,-0.9722,0,0,0,0,0,0,0,0,0,0,0,0,0,-0.9722,-0.9722,-0.9712,-0.9712,-0.9712,-0.9712,-0.9712,-0.9712,-0.9725,-0.9725,-0.9726,-0.9726,-0.9723,-0.9723,-0.9722,0,0,0,0,0,0,0,0,0,0,0,0,0,-0.9719,-0.9722,-0.9712,-0.9719,-0.9719,-0.9712,-0.9712,-0.9712,-0.9725,-0.9725,-0.9726,-0.9726,-0.9723,-0.9723,-0.9722,-0.9708,0,0,-0.972,-0.972,0,0,0,0,0,0,0,0,-0.972,-0.9719,-0.9718,-0.9718,-0.9719,-0.9719,-0.9714,-0.971,-0.9724,-0.9722,-0.9726,-0.9726,-0.9721,-0.9721,-0.9719,-0.9708,-0.9708,-0.972,-0.972,-0.972,-0.972,0,0,0,0,0,0,0,-0.972,-0.9719,-0.9712,-0.9718,-0.9718,-0.9721,-0.9721,-0.9714,-0.9719,-0.9723,-0.9724,-0.9724,-0.9722,-0.972,-0.9719,-0.9707,-0.972,-0.972,-0.9719,-0.9719,-0.9683,-0.9682,0,0,0,0,0,0,-0.9719,-0.9719,-0.9712,-0.9712,-0.9721,-0.972,-0.9721,-0.9718,-0.9719,-0.972,-0.9723,-0.9724,-0.9721,-0.972,-0.9719,-0.9701,-0.972,-0.9719,-0.9719,-0.9683,-0.9682,-0.9682,0,0,0,0,0,0,-0.972,-0.9719,-0.9712,-0.9716,-0.9715,-0.972,-0.9717,-0.9718,-0.9716,-0.9719,-0.972,-0.9721,-0.9721,-0.972,-0.971,-0.9702,-0.9719,-0.9718,-0.9684,-0.9683,-0.9682,-0.9666,0,0,0,0,0,0,-0.972,-0.9719,-0.9714,-0.9716,-0.9715,-0.9703,-0.9716,-0.9718,-0.9716,-0.9717,-0.9717,-0.9718,-0.9722,-0.9711,-0.971,-0.9701,-0.9718,-0.9685,-0.9683,-0.9682,-0.9667,-0.9664,-0.9662,0,0,0,0,0,-0.972,-0.9709,-0.9713,-0.9712,-0.9709,-0.9703,-0.9702,-0.9708,-0.9715,-0.9709,-0.9711,-0.9718,-0.9703,-0.971,-0.9709,-0.9699,-0.9685,-0.9684,-0.9682,-0.9668,-0.9665,-0.9662,0,0,0,0,0,0,-0.9705,-0.9709,-0.9714,-0.9703,-0.9703,-0.9705,-0.9698,-0.9704,-0.9701,-0.9703,-0.9709,-0.9709,-0.9697,-0.9698,-0.9706,-0.9685,-0.9695,-0.9693,-0.9685,-0.9682,-0.9679,-0.9679,-0.9717,0,0,0,0,0,-0.97,-0.9696,-0.97,-0.969,-0.9689,-0.9694,-0.9692,-0.9696,-0.9695,-0.9695,-0.9696,-0.9694,-0.9689,-0.9686,-0.9682,-0.9668,-0.9667,-0.9661,-0.9658,-0.9656,-0.9654,-0.9645,-0.9642,-0.9677,-0.9677,-0.9677,0,0,-0.9691,-0.9693,-0.9689,-0.9687,-0.9687,-0.9681,-0.9694,-0.9687,-0.9683,-0.9694,-0.9684,-0.9685,-0.9684,-0.9671,-0.9666,-0.9671,-0.9644,-0.9654,-0.9653,-0.9652,-0.9644,-0.964,-0.9637,-0.9676,-0.9676,-0.9677,0,0,-0.967,-0.9672,-0.9663,-0.9663,-0.9663,-0.9666,-0.9664,-0.9666,-0.9667,-0.9658,-0.9665,-0.966,-0.9652,-0.965,-0.9648,-0.9627,-0.9632,-0.9626,-0.9612,-0.9603,-0.9601,-0.9598,-0.9589,-0.9586,-0.9624,-0.9624,-0.9624,0,-0.9658,-0.965,-0.9658,-0.9651,-0.9649,-0.9659,-0.965,-0.9649,-0.9648,-0.9646,-0.9652,-0.9641,-0.9641,-0.9628,-0.9623,-0.9622,-0.9618,-0.9625,-0.9601,-0.9598,-0.9596,-0.9587,-0.9584,-0.9623,-0.9623,-0.9623,-0.9623,0,-0.9634,-0.9629,-0.9622,-0.9621,-0.9618,-0.961,-0.9616,-0.9612,-0.9617,-0.9619,-0.9609,-0.9609,-0.9605,-0.9602,-0.9607,-0.959,-0.9593,-0.96,-0.961,-0.9592,-0.9583,-0.958,-0.9621,-0.9622,-0.9622,-0.9622,0,0,-0.9603,-0.9606,-0.9603,-0.9603,-0.9604,-0.9599,-0.9591,-0.9588,-0.9584,-0.9583,-0.9575,-0.9568,-0.9574,-0.9572,-0.9576,-0.9569,-0.9551,-0.9577,-0.9577,-0.9571,-0.953,-0.9524,-0.952,-0.9555,-0.9554,-0.9554,-0.953,0,-0.9582,-0.9569,-0.9575,-0.9561,-0.9556,-0.9566,-0.9559,-0.9558,-0.956,-0.9555,-0.9557,-0.9551,-0.9561,-0.956,-0.9553,-0.9554,-0.9542,-0.9556,-0.9546,-0.9546,-0.9545,-0.9516,-0.9509,-0.9486,-0.9527,-0.9526,-0.9526,0,-0.9555,-0.9553,-0.9539,-0.954,-0.9538,-0.9532,-0.9528,-0.9524,-0.9523,-0.9525,-0.9523,-0.9528,-0.952,-0.9531,-0.9518,-0.9528,-0.9524,-0.9524,-0.9523,-0.9521,-0.9534,-0.9511,-0.9479,-0.9475,-0.9521,-0.9522,-0.9522,0,-0.9532,-0.9526,-0.9516,-0.9515,-0.9517,-0.9512,-0.9513,-0.9512,-0.951,-0.9507,-0.9504,-0.95,-0.9498,-0.9494,-0.9498,-0.9506,-0.9484,-0.9496,-0.9484,-0.9484,-0.9477,-0.9477,-0.9443,-0.9478,-0.9478,-0.9478,-0.9478,0,-0.9506,-0.9497,-0.9505,-0.9499,-0.9488,-0.9496,-0.9485,-0.9486,-0.9486,-0.9479,-0.9488,-0.9481,-0.9488,-0.9482,-0.9485,-0.9473,-0.9472,-0.9473,-0.9473,-0.9471,-0.947,-0.9467,-0.9468,-0.9477,-0.9477,-0.9478,-0.9478,0,-0.9478,-0.9483,-0.9473,-0.9476,-0.9477,-0.9468,-0.947,-0.9464,-0.9467,-0.9459,-0.9457,-0.9461,-0.9455,-0.9459,-0.9452,-0.9454,-0.9438,-0.9442,-0.9438,-0.9438,-0.9425,-0.9426,-0.9386,-0.938,-0.9421,-0.9421,-0.942,0,-0.946,-0.9453,-0.9456,-0.9452,-0.9452,-0.9447,-0.9444,-0.9451,-0.9448,-0.9446,-0.944,-0.9434,-0.9429,-0.9418,-0.9419,-0.9414,-0.9416,-0.9403,-0.9415,-0.9413,-0.9414,-0.9414,-0.9412,-0.94,-0.9399,-0.9399,-0.9398,0,-0.9428,-0.9432,-0.9428,-0.9424,-0.9421,-0.9419,-0.9417,-0.9413,-0.9421,-0.9416,-0.941,-0.9406,-0.9399,-0.9393,-0.9388,-0.9387,-0.9393,-0.9395,-0.9391,-0.9388,-0.9385,-0.9385,-0.9429,-0.9395,-0.9396,-0.9396,-0.9396,-0.9396,-0.9404,-0.9397,-0.9398,-0.9393,-0.9393,-0.9391,-0.9385,-0.9387,-0.9382,-0.9378,-0.9382,-0.9374,-0.9373,-0.9367,-0.9366,-0.9358,-0.9364,-0.9359,-0.9358,-0.9356,-0.9353,-0.9388,-0.9358,-0.9358,-0.9358,-0.9358,-0.9358,0,-0.9371,-0.9372,-0.9367,-0.9365,-0.9361,-0.9368,-0.9367,-0.9362,-0.9355,-0.9354,-0.935,-0.9342,-0.9335,-0.9337,-0.9331,-0.9325,-0.9327,-0.9323,-0.9322,-0.9321,-0.935,-0.9353,-0.9321,-0.9321,-0.9321,-0.9321,-0.9321,-0.9321,-0.9353,-0.9342,-0.9345,-0.9334,-0.9335,-0.9328,-0.9326,-0.9324,-0.9323,-0.9314,-0.9309,-0.931,-0.931,-0.9304,-0.9298,-0.9298,-0.9295,-0.9289,-0.929,-0.9316,-0.932,-0.9323,-0.9326,-0.9289,-0.9289,-0.9262,-0.9262,-0.9262]},{"header":{"parameterUnit":"m.s-1","parameterCategory":1,"la1":30.2991,"la2":30.254,"lo1":-89.0895,"lo2":-89.0444,"dy":0.0017,"dx":0.0017,"nx":28,"ny":28,"refTime":"2024-07-02T09:00:00:Z","depth":0,"parameterNumber":3,"parameterNumberName":"V-component_of_WINDS"},"data":[0,0,0,0,0,0,0,0,0,0,0,0,0,0,0,0,0,0,0,0,0,0,0,0,0,0,0,0,0,0,0,0,0,0,0,0,0,0,0,0,0,0,0,0,0,0,0,0,0,0,0,0,0,0,0,0,0,0,1.4418,1.4418,0,1.4418,1.4418,1.4418,1.4374,1.4373,1.4372,1.437,1.4369,1.437,1.4371,0,0,0,0,0,0,0,0,0,0,0,0,0,1.4381,1.4382,1.4418,1.4418,1.4418,1.4418,1.4418,1.4418,1.4374,1.4373,1.4371,1.437,1.4369,1.437,1.4371,0,0,0,0,0,0,0,0,0,0,0,0,0,1.4391,1.4382,1.4418,1.4397,1.4395,1.4418,1.4418,1.4418,1.4374,1.4373,1.4371,1.4369,1.4368,1.437,1.4371,1.4415,0,0,1.4376,1.4377,0,0,0,0,0,0,0,0,1.439,1.4392,1.44,1.4398,1.4396,1.4394,1.4404,1.4417,1.4375,1.4382,1.437,1.4368,1.4379,1.4379,1.4383,1.4415,1.4415,1.4376,1.4377,1.4378,1.4378,0,0,0,0,0,0,0,1.439,1.4392,1.4418,1.44,1.4398,1.4386,1.4386,1.4406,1.439,1.4381,1.4378,1.4379,1.4377,1.4381,1.4382,1.4415,1.4376,1.4377,1.4378,1.4379,1.4483,1.4484,0,0,0,0,0,0,1.4392,1.4392,1.4418,1.4418,1.4389,1.4389,1.4388,1.4396,1.439,1.4387,1.438,1.4377,1.438,1.4381,1.4382,1.4433,1.4378,1.4379,1.438,1.4481,1.4483,1.4485,0,0,0,0,0,0,1.4391,1.4395,1.4418,1.4404,1.4406,1.4391,1.4401,1.4397,1.4401,1.4389,1.4385,1.4387,1.4378,1.438,1.4407,1.4432,1.438,1.4381,1.4479,1.4481,1.4484,1.4535,0,0,0,0,0,0,1.4391,1.4395,1.4412,1.4405,1.4407,1.4444,1.4402,1.4399,1.4404,1.44,1.4395,1.4392,1.4377,1.4405,1.4409,1.4434,1.4382,1.4476,1.448,1.4483,1.4531,1.4539,1.4546,0,0,0,0,0,1.4389,1.4426,1.4413,1.4416,1.4428,1.4445,1.4446,1.4428,1.4407,1.4423,1.4415,1.4392,1.4429,1.4408,1.4412,1.4438,1.4475,1.4479,1.4483,1.4528,1.4538,1.4546,0,0,0,0,0,0,1.4436,1.4424,1.441,1.4445,1.4447,1.4438,1.4458,1.444,1.4447,1.4442,1.4419,1.4419,1.445,1.4446,1.4423,1.448,1.4448,1.4453,1.4481,1.449,1.4498,1.4498,1.4384,0,0,0,0,0,1.445,1.4465,1.4455,1.4487,1.4488,1.4473,1.448,1.4466,1.4467,1.4467,1.4461,1.4462,1.4473,1.4481,1.4491,1.453,1.4529,1.455,1.4557,1.4564,1.4568,1.4589,1.4598,1.4499,1.4499,1.4498,0,0,1.448,1.4476,1.4487,1.4496,1.4496,1.4512,1.4474,1.4493,1.4504,1.4469,1.4495,1.449,1.449,1.4523,1.4538,1.4521,1.4596,1.4569,1.4574,1.4575,1.4594,1.4604,1.4612,1.4501,1.4501,1.45,0,0,1.4542,1.4541,1.4568,1.4568,1.4568,1.4557,1.4564,1.4558,1.4554,1.4579,1.4553,1.4566,1.4587,1.4588,1.4591,1.4654,1.4634,1.4658,1.4698,1.4718,1.4726,1.4732,1.4755,1.4764,1.4662,1.4663,1.4663,0,1.4579,1.4603,1.4584,1.4604,1.4609,1.4579,1.4605,1.4606,1.4609,1.4613,1.4595,1.4621,1.4618,1.4651,1.4667,1.467,1.4677,1.4658,1.4726,1.4733,1.4739,1.476,1.4769,1.4666,1.4665,1.4665,1.4665,0,1.4649,1.4666,1.4687,1.4691,1.4699,1.4722,1.4706,1.4716,1.4701,1.4693,1.4719,1.4715,1.4723,1.473,1.4716,1.4761,1.4751,1.473,1.4698,1.4752,1.4772,1.478,1.467,1.4669,1.4668,1.4667,0,0,1.4741,1.4734,1.4742,1.4744,1.4741,1.4753,1.4776,1.4784,1.4793,1.4796,1.4814,1.4833,1.4813,1.4816,1.4802,1.482,1.487,1.4796,1.4796,1.481,1.492,1.4937,1.4947,1.4857,1.4858,1.4859,1.4921,0,1.4802,1.4839,1.4822,1.4862,1.4877,1.4849,1.4868,1.4868,1.4861,1.4873,1.4864,1.4878,1.4851,1.4853,1.4869,1.4861,1.4892,1.4856,1.4873,1.4874,1.4875,1.4957,1.4974,1.5032,1.4928,1.4929,1.493,0,1.4878,1.4884,1.4926,1.492,1.4926,1.4944,1.4951,1.4962,1.4962,1.4956,1.496,1.4941,1.4963,1.4931,1.4959,1.4935,1.4941,1.4938,1.494,1.4941,1.4906,1.4961,1.505,1.5059,1.4942,1.4941,1.4941,0,1.4941,1.496,1.4987,1.4989,1.4984,1.4997,1.4995,1.4994,1.5,1.5006,1.501,1.5018,1.5023,1.5029,1.5014,1.4992,1.5045,1.5011,1.504,1.5041,1.5053,1.5052,1.5145,1.5056,1.5056,1.5056,1.5056,0,1.5011,1.5037,1.5016,1.5033,1.5061,1.5041,1.507,1.5065,1.5064,1.5079,1.5054,1.5069,1.5047,1.506,1.5048,1.5074,1.5076,1.5071,1.5068,1.5074,1.5074,1.5077,1.5073,1.5058,1.5058,1.5057,1.5057,0,1.5087,1.5073,1.5101,1.5094,1.5092,1.5114,1.5107,1.5123,1.5114,1.5133,1.5137,1.5122,1.5136,1.5121,1.5133,1.5125,1.516,1.515,1.5161,1.5158,1.5188,1.5185,1.5286,1.5298,1.5201,1.5202,1.5203,0,1.5132,1.5152,1.5147,1.5155,1.5155,1.5169,1.5176,1.5157,1.5165,1.5166,1.5181,1.5193,1.5201,1.5224,1.5215,1.5224,1.5215,1.5249,1.5216,1.5221,1.5216,1.5215,1.5217,1.5256,1.5257,1.5258,1.5259,0,1.5215,1.5207,1.5218,1.5226,1.5235,1.5241,1.5244,1.5253,1.5233,1.5243,1.5257,1.5263,1.5276,1.5288,1.5294,1.5292,1.5273,1.527,1.5277,1.5283,1.5288,1.5286,1.5179,1.5267,1.5267,1.5266,1.5265,1.5265,1.5277,1.5293,1.5292,1.5305,1.5306,1.531,1.5324,1.5317,1.5328,1.5337,1.5325,1.5342,1.5342,1.5349,1.5349,1.5362,1.5347,1.5357,1.536,1.5363,1.5368,1.5286,1.5363,1.5363,1.5362,1.5362,1.5362,0,1.5359,1.5357,1.5369,1.5375,1.5385,1.5365,1.5369,1.5378,1.5394,1.5395,1.5404,1.5419,1.5431,1.5423,1.5432,1.5444,1.5435,1.5447,1.5446,1.5446,1.538,1.5373,1.5454,1.5454,1.5454,1.5454,1.5454,1.5454,1.5402,1.5429,1.5421,1.5448,1.5446,1.5463,1.5466,1.547,1.5471,1.549,1.5499,1.5494,1.5491,1.55,1.551,1.5507,1.5512,1.5527,1.5521,1.546,1.5451,1.5442,1.5436,1.5528,1.5529,1.5586,1.5587,1.5587]}]]